Regional Weather Roundup
Issued by NWS State College, PA

Home | Current Version | Previous Version | Graphics & Text | Print | Product List | Glossary Off
Versions: 1 2 3 4 5 6 7 8 9 10 11 12 13 14 15 16 17 18 19 20 21 22 23 24 25 26 27 28 29 30 31 32 33 34 35 36 37 38 39 40 41 42 43 44 45 46 47 48 49 50

869
ASUS41 KCTP 190603
RWRCTP

REGIONAL WEATHER ROUNDUP
NATIONAL WEATHER SERVICE STATE COLLEGE PA
100 AM EST SUN NOV 19 2017

Note: "fair" indicates few or no clouds below 12,000 feet with no
significant weather and/or obstructions to visibility.

* = STATION THAT DOES NOT REPORT PRECIPITATION /E.G. RAIN...SNOW...ETC/
    THUNDER OR FOG.

PAZ002>004-007>009-013>016-020>023-029>032-190700-
WESTERN PENNSYLVANIA

CITY           SKY/WX    TMP DP  RH WIND       PRES   REMARKS
ERIE           LGT RAIN  42  38  85 NW21G32   29.26R
MEADVILLE      LGT RAIN  38  38 100 NW22G35   29.27R
FRANKLIN*      RAIN      40  37  89 NW15G28   29.24R
NEW CASTLE     LGT RAIN  39  37  92 NW13G28   29.35R
BEAVER COUNTY  NOT AVBL
BUTLER*          N/A    N/A N/A N/A MISG        N/A
PITTSBURGH INT LGT RAIN  42  40  92 W29G39    29.32R
PITTSBURGH     LGT RAIN  44  39  82 NW13G36   29.29R
INDIANA*       CLOUDY    57  55  94 W24G39    29.18R FOG
LATROBE        LGT RAIN  54  50  87 W25G38    29.25R
WASHINGTON CO* LGT RAIN  42  39  89 W23G30    29.39R
$$

PAZ004>006-010>012-017>019-024>028-033>037-041-042-045-046-049>053-190700-
CENTRAL PENNSYLVANIA

CITY           SKY/WX    TMP DP  RH WIND       PRES   REMARKS
BRADFORD       LGT RAIN  44  44 100 SE9       29.07F
DUBOIS         LGT RAIN  47  44  90 S8        29.09F FOG
CLEARFIELD     CLOUDY    43  43 100 NE5       29.14F FOG
JOHNSTOWN      LGT RAIN  56  49  77 SW21G40   29.17F
ALTOONA        CLOUDY    49  45  86 S13       29.23S
STATE COLLEGE  CLOUDY    41  40  97 W7        29.18F
WILLIAMSPORT   CLOUDY    50  44  80 SE21G32   29.17F
SELINSGROVE    MOCLDY    42  42 100 E3        29.23F FOG
FT INDIANTOWN  LGT RAIN  47  47 100 CALM      29.29F
CAPITAL CITY   LGT RAIN  56  49  77 S13G23    29.26F
HARRISBURG     LGT RAIN  56  51  84 S16G30    29.27F
YORK           LGT RAIN  56  53  90 S17G32    29.31F
$$

PAZ038>040-043-044-047-048-054-055-060>062-067>071-190700-
EASTERN PENNSYLVANIA

CITY           SKY/WX    TMP DP  RH WIND       PRES   REMARKS
SCRANTON       CLOUDY    51  46  83 SW12G22   29.26F
MOUNT POCONO   LGT RAIN  45  45 100 S10G17    29.30F
ALLENTOWN      LGT RAIN  47  44  90 CALM      29.34F
QUAKERTOWN*    CLOUDY    54  50  87 SW12      29.35F
READING        RAIN      55  52  89 S5        29.32F
LANCASTER      LGT RAIN  57  52  83 S12G25    29.33F
COATESVILLE    LGT RAIN  57  52  82 S9G23     29.36F
POTTSTOWN      LGT RAIN  57  51  80 SW10G23   29.35F
BLUE BELL      CLOUDY    55  52  88 SW10G18   29.36F
DOYLESTOWN     LGT RAIN  57  50  77 S8G18     29.34F
WILLOW GROVE   NOT AVBL
NORTH PHILA    CLOUDY    62  51  67 SW16G25   29.37F
PHILADELPHIA   LGT RAIN  61  51  70 SW20G31   29.37F
$$




USA.gov is the U.S. government's official web portal to all federal, state and local government web resources and services.